Tracking 29606 objects as of 18-Sep-2024
HD Live streaming from Space Station
objects crossing your sky now

STARLINK-4612

Track STARLINK-4612 now!
10-day predictions
STARLINK-4612 is classified as:


NORAD ID: 53750
Int'l Code: 2022-107BC
Perigee: 546.1 km
Apogee: 547.6 km
Inclination: 53.2 °
Period: 95.4 minutes
Semi major axis: 6917 km
RCS: Unknown
Launch date: September 5, 2022
Source: United States (US)
Launch site: AIR FORCE EASTERN TEST RANGE (AFETR)
Your satellite tracking list
Your tracking list is empty




NASA's NSSDC Master Catalog

Two Line Element Set (TLE):
1 53750U 22107BC  24261.97366705  .00000691  00000-0  61462-4 0  9999
2 53750  53.2164 158.2295 0001149  85.6276 274.4847 15.08850540112639
Source of the keplerian elements: AFSPC